User: anonymous   Login
Location: Shenandoah County Park
(38.9356°N, 78.4524°W)
Time: 09:14:20
(UTC-04:00)
Language:

First-Move - Orbit

View from above orbital plane
View from above orbital plane
View from above satellite
View from above satellite

Ground track
Ground track

The orbit data is extracted from the following two-line orbital elements,

1 39439U 13066Z   23079.37690573  .00009419  00000-0  10031-2 0  9995
2 39439  97.6713  47.6224 0056964 209.3527 150.4487 14.87916360504100
Epoch (UTC): 20 March 2023 09:02:44
Eccentricity: 0.0056964
inclination: 97.6713°
perigee height: 564 km
apogee height: 644 km
right ascension of ascending node: 47.6224°
argument of perigee: 209.3527°
revolutions per day: 14.87916360
mean anomaly at epoch: 150.4487°
orbit number at epoch: 50410

The dashed part of the orbit path shows where the satellite is in the earth's shadow,  

DLR